Record,Date/Time,10,Tamb(K),Rh(%),Pres(mb),Rain,Az(deg),El(deg),TkBB(K), 22.235, 23.035, 23.835, 26.235, 30.000,
     1,10/07/05 00:01:13,11,291.24, 79.29,1014.1,N,  0.00, 90.00,296.04, 70.83, 66.85, 55.11, 33.15, 22.52,
     2,10/07/05 00:02:14,11,291.32, 79.38,1014.1,N,  0.00, 90.00,296.03, 70.97, 66.81, 55.18, 33.64, 22.98,
     3,10/07/05 00:03:14,11,291.32, 79.39,1014.0,N,  0.00, 90.00,296.03, 70.67, 66.81, 54.83, 33.86, 22.50,
     4,10/07/05 00:04:14,11,291.27, 79.17,1013.8,N,  0.00, 90.00,296.03, 70.68, 67.11, 54.72, 33.71, 22.56,
     5,10/07/05 00:05:14,11,291.22, 78.17,1013.8,N,  0.00, 90.00,296.03, 71.29, 67.23, 55.01, 33.43, 22.85,
     6,10/07/05 00:06:14,11,291.21, 79.25,1014.0,N,  0.00, 90.00,296.03, 71.12, 67.46, 54.92, 33.36, 23.21,
     7,10/07/05 00:07:14,11,291.45, 80.13,1014.1,N,  0.00, 90.00,296.04, 70.73, 67.39, 55.28, 33.36, 22.83,
     8,10/07/05 00:08:14,11,291.22, 80.06,1014.2,N,  0.00, 90.00,296.04, 70.69, 66.72, 54.50, 33.80, 22.65,
     9,10/07/05 00:09:14,11,291.32, 79.30,1014.6,N,  0.00, 90.00,296.03, 70.93, 67.21, 54.98, 33.55, 22.52,
    10,10/07/05 00:10:14,11,291.47, 80.27,1014.3,N,  0.00, 90.00,296.04, 70.69, 67.08, 55.02, 33.74, 22.72,
    11,10/07/05 00:11:14,11,291.18, 78.73,1014.7,N,  0.00, 90.00,296.05, 70.68, 67.26, 55.26, 33.51, 22.38,
    12,10/07/05 00:12:14,11,291.25, 79.37,1014.5,N,  0.00, 90.00,296.04, 72.79, 69.02, 57.47, 35.65, 25.79,
    13,10/07/05 00:13:14,11,291.31, 80.10,1014.4,N,  0.00, 90.00,296.03, 70.78, 67.09, 55.06, 33.41, 22.95,
    14,10/07/05 00:14:14,11,291.22, 79.44,1014.5,N,  0.00, 90.00,296.04, 70.87, 66.99, 54.80, 33.92, 22.55,
    15,10/07/05 00:15:14,11,291.33, 80.37,1014.5,N,  0.00, 90.00,296.04, 70.76, 67.05, 55.30, 34.04, 23.58,
    16,10/07/05 00:16:14,11,291.24, 80.04,1014.5,N,  0.00, 90.00,296.05, 70.78, 67.36, 54.97, 33.40, 22.99,
    17,10/07/05 00:17:14,11,291.30, 79.91,1014.7,N,  0.00, 90.00,296.04, 70.94, 66.83, 54.72, 33.20, 22.43,
    18,10/07/05 00:18:14,11,291.35, 80.51,1014.5,N,  0.00, 90.00,296.05, 71.27, 67.85, 55.53, 33.83, 23.03,
    19,10/07/05 00:19:14,11,291.19, 80.72,1014.3,N,  0.00, 90.00,296.04, 71.56, 67.98, 56.20, 34.46, 23.71,
    20,10/07/05 00:20:14,11,291.38, 80.48,1013.9,N,  0.00, 90.00,296.05, 71.41, 68.12, 56.06, 35.18, 24.51,
    21,10/07/05 00:21:14,11,291.38, 81.53,1014.6,N,  0.00, 90.00,296.06, 71.26, 68.04, 56.26, 34.82, 24.92,
    22,10/07/05 00:22:14,11,291.15, 79.93,1014.8,N,  0.00, 90.00,296.05, 70.85, 66.98, 55.28, 33.77, 23.47,
    23,10/07/05 00:23:14,11,291.33, 81.00,1015.0,N,  0.00, 90.00,296.06, 71.03, 67.55, 55.45, 33.88, 23.52,
    24,10/07/05 00:24:14,11,291.45, 80.61,1014.5,N,  0.00, 90.00,296.08, 71.36, 67.68, 55.72, 33.98, 24.85,
    25,10/07/05 00:25:14,11,291.19, 79.85,1014.8,N,  0.00, 90.00,296.07, 70.61, 67.44, 55.68, 34.39, 22.90,
    26,10/07/05 00:26:14,11,291.27, 79.75,1014.5,N,  0.00, 90.00,296.09, 71.13, 67.70, 55.49, 34.32, 24.87,
    27,10/07/05 00:27:14,11,291.26, 80.08,1014.6,N,  0.00, 90.00,296.09, 71.24, 67.84, 56.24, 34.63, 24.65,
    28,10/07/05 00:28:14,11,291.35, 80.44,1014.4,N,  0.00, 90.00,296.10, 70.93, 66.66, 55.25, 34.36, 23.19,
    29,10/07/05 00:29:14,11,291.27, 80.50,1014.6,N,  0.00, 90.00,296.10, 72.44, 68.90, 56.64, 36.15, 26.42,
    30,10/07/05 00:30:14,11,291.32, 81.02,1015.0,N,  0.00, 90.00,296.09, 71.06, 67.44, 55.60, 33.89, 22.97,
    31,10/07/05 00:31:14,11,291.26, 81.21,1014.4,N,  0.00, 90.00,296.10, 70.75, 67.73, 55.20, 33.68, 22.98,
    32,10/07/05 00:32:14,11,291.41, 81.88,1015.1,N,  0.00, 90.00,296.12, 71.31, 67.38, 56.02, 34.32, 23.26,
    33,10/07/05 00:33:14,11,291.22, 82.14,1014.7,N,  0.00, 90.00,296.12, 71.41, 67.51, 56.02, 34.26, 23.84,
    34,10/07/05 00:34:14,11,291.21, 81.29,1014.9,N,  0.00, 90.00,296.10, 71.98, 68.11, 56.43, 34.99, 24.15,
    35,10/07/05 00:35:14,11,291.23, 81.72,1014.8,N,  0.00, 90.00,296.13, 71.66, 68.50, 56.83, 35.11, 25.20,
    36,10/07/05 00:36:14,11,291.31, 81.44,1014.6,N,  0.00, 90.00,296.14, 72.99, 70.06, 58.56, 37.58, 28.40,
    37,10/07/05 00:37:14,11,291.17, 80.64,1015.1,N,  0.00, 90.00,296.13, 72.71, 68.83, 56.77, 36.49, 25.90,
    38,10/07/05 00:38:14,11,291.35, 81.82,1015.1,N,  0.00, 90.00,296.13, 73.07, 69.54, 57.74, 37.09, 26.99,
    39,10/07/05 00:39:13,11,291.50, 83.15,1015.1,N,  0.00, 90.00,296.14, 74.32, 71.08, 59.52, 38.73, 29.61,
    40,10/07/05 00:40:14,11,291.25, 82.68,1015.1,N,  0.00, 90.00,296.15, 72.81, 69.27, 57.53, 36.73, 26.62,
    41,10/07/05 00:41:14,11,291.41, 81.92,1015.1,N,  0.00, 90.00,296.16, 72.97, 69.32, 57.68, 36.68, 26.43,
    42,10/07/05 00:42:14,11,291.24, 81.43,1014.8,N,  0.00, 90.00,296.17, 74.03, 70.80, 59.15, 38.60, 29.71,
    43,10/07/05 00:43:14,11,291.31, 82.30,1015.2,N,  0.00, 90.00,296.17, 75.65, 72.43, 60.97, 40.84, 32.42,
    44,10/07/05 00:44:14,11,291.44, 83.14,1015.0,N,  0.00, 90.00,296.18, 73.13, 69.79, 58.03, 37.08, 27.25,
    45,10/07/05 00:45:14,11,291.24, 83.63,1015.0,N,  0.00, 90.00,296.20, 73.71, 70.42, 59.32, 37.98, 28.98,
    46,10/07/05 00:46:13,11,291.27, 82.63,1015.1,N,  0.00, 90.00,296.20, 74.86, 71.30, 59.58, 38.71, 31.01,
    47,10/07/05 00:47:14,11,291.34, 81.41,1015.5,N,  0.00, 90.00,296.21, 74.54, 71.27, 59.16, 38.77, 29.85,
    48,10/07/05 00:48:14,11,291.33, 81.28,1015.2,N,  0.00, 90.00,296.22, 74.44, 70.23, 58.24, 38.35, 29.44,
    49,10/07/05 00:49:14,11,291.31, 81.24,1014.9,N,  0.00, 90.00,296.23, 74.42, 70.82, 59.15, 39.02, 29.92,
    50,10/07/05 00:50:14,11,291.24, 81.11,1015.0,N,  0.00, 90.00,296.24, 72.47, 68.81, 56.98, 35.68, 25.93,
    51,10/07/05 00:51:14,11,291.33, 81.10,1015.2,N,  0.00, 90.00,296.26, 74.76, 71.27, 59.77, 38.77, 29.05,
    52,10/07/05 00:52:14,11,291.52, 82.11,1015.0,N,  0.00, 90.00,296.27, 73.76, 70.64, 58.55, 38.24, 29.08,
    53,10/07/05 00:53:14,11,291.36, 81.36,1015.2,N,  0.00, 90.00,296.26, 73.62, 69.74, 58.59, 37.58, 28.65,
    54,10/07/05 00:54:14,11,291.34, 80.59,1015.3,N,  0.00, 90.00,296.26, 74.18, 70.75, 58.97, 38.02, 28.46,
    55,10/07/05 00:55:14,11,291.40, 80.75,1015.1,N,  0.00, 90.00,296.28, 72.16, 69.38, 57.14, 35.86, 26.67,
    56,10/07/05 00:56:14,11,291.42, 80.72,1015.2,N,  0.00, 90.00,296.30, 74.04, 70.77, 58.97, 38.29, 29.02,
    57,10/07/05 00:57:14,11,291.39, 80.76,1015.3,N,  0.00, 90.00,296.30, 73.60, 70.03, 58.68, 37.64, 28.15,
    58,10/07/05 00:58:14,11,291.31, 80.82,1015.5,N,  0.00, 90.00,296.28, 74.15, 70.08, 58.80, 38.05, 27.99,
    59,10/07/05 00:59:14,11,291.39, 81.20,1015.1,N,  0.00, 90.00,296.29, 73.11, 69.87, 57.91, 37.72, 28.48,
    60,10/07/05 01:00:14,11,291.46, 80.61,1015.0,N,  0.00, 90.00,296.30, 72.09, 69.12, 57.51, 35.69, 25.40,
    61,10/07/05 01:01:14,11,291.36, 81.10,1015.0,N,  0.00, 90.00,296.29, 73.33, 69.33, 57.66, 36.67, 28.41,
    62,10/07/05 01:02:14,11,291.30, 81.93,1015.1,N,  0.00, 90.00,296.30, 72.14, 69.16, 57.25, 36.61, 26.31,
    63,10/07/05 01:03:14,11,291.37, 81.95,1015.2,N,  0.00, 90.00,296.31, 72.15, 68.76, 56.68, 35.73, 26.52,
    64,10/07/05 01:04:14,11,291.40, 82.32,1015.3,N,  0.00, 90.00,296.31, 71.88, 68.28, 56.34, 35.07, 24.94,
    65,10/07/05 01:05:14,11,291.31, 82.15,1015.4,N,  0.00, 90.00,296.31, 70.29, 67.04, 55.69, 33.47, 24.02,
    66,10/07/05 01:06:14,11,291.40, 81.84,1015.3,N,  0.00, 90.00,296.31, 71.05, 67.36, 55.54, 34.87, 24.27,
    67,10/07/05 01:07:14,11,291.37, 81.47,1015.2,N,  0.00, 90.00,296.32, 70.50, 67.22, 55.13, 33.49, 23.47,
    68,10/07/05 01:08:14,11,291.44, 81.86,1015.3,N,  0.00, 90.00,296.31, 70.63, 67.49, 54.83, 33.95, 23.14,
    69,10/07/05 01:09:14,11,291.19, 81.42,1015.3,N,  0.00, 90.00,296.32, 69.95, 65.98, 54.66, 32.94, 22.07,
    70,10/07/05 01:10:14,11,291.32, 81.39,1015.4,N,  0.00, 90.00,296.32, 70.53, 66.77, 54.58, 34.12, 22.94,
    71,10/07/05 01:11:14,11,291.46, 82.61,1015.6,N,  0.00, 90.00,296.34, 70.15, 67.02, 54.71, 32.85, 22.43,
    72,10/07/05 01:12:14,11,291.28, 82.46,1015.4,N,  0.00, 90.00,296.34, 70.44, 66.41, 54.97, 33.58, 22.44,
    73,10/07/05 01:13:14,11,291.24, 82.00,1015.5,N,  0.00, 90.00,296.32, 69.85, 66.02, 54.34, 32.95, 22.65,
    74,10/07/05 01:14:14,11,291.25, 81.73,1015.2,N,  0.00, 90.00,296.33, 70.29, 65.73, 54.47, 33.23, 22.88,
    75,10/07/05 01:15:14,11,291.34, 81.92,1015.4,N,  0.00, 90.00,296.33, 69.64, 66.55, 54.05, 32.68, 22.94,
    76,10/07/05 01:16:14,11,291.26, 81.23,1015.2,N,  0.00, 90.00,296.34, 70.01, 66.25, 54.46, 33.27, 23.22,
    77,10/07/05 01:17:14,11,291.33, 82.04,1015.1,N,  0.00, 90.00,296.35, 69.42, 65.88, 54.44, 33.12, 21.93,
    78,10/07/05 01:18:14,11,291.31, 82.60,1015.6,N,  0.00, 90.00,296.34, 70.17, 66.10, 54.36, 33.05, 22.33,
    79,10/07/05 01:19:14,11,291.43, 81.76,1015.0,N,  0.00, 90.00,296.34, 69.61, 65.89, 54.13, 32.98, 22.20,
    80,10/07/05 01:20:14,11,291.28, 81.86,1015.5,N,  0.00, 90.00,296.34, 70.11, 65.55, 53.72, 33.14, 22.82,
    81,10/07/05 01:21:14,11,291.34, 82.63,1015.5,N,  0.00, 90.00,296.35, 69.78, 65.84, 54.08, 33.05, 22.46,
    82,10/07/05 01:22:14,11,291.19, 82.13,1015.4,N,  0.00, 90.00,296.33, 69.96, 66.37, 54.74, 32.93, 22.45,
    83,10/07/05 01:23:14,11,291.25, 82.46,1015.6,N,  0.00, 90.00,296.33, 69.93, 66.55, 54.42, 32.87, 22.31,
    84,10/07/05 01:24:14,11,291.23, 82.72,1015.5,N,  0.00, 90.00,296.33, 69.88, 66.55, 54.58, 33.37, 21.59,
    85,10/07/05 01:25:14,11,291.19, 82.67,1015.3,N,  0.00, 90.00,296.32, 70.04, 66.34, 54.60, 33.59, 22.99,
    86,10/07/05 01:26:14,11,291.18, 82.80,1015.1,N,  0.00, 90.00,296.32, 69.64, 65.88, 53.99, 33.02, 21.70,
    87,10/07/05 01:27:14,11,291.20, 82.60,1015.6,N,  0.00, 90.00,296.31, 70.37, 67.12, 55.44, 34.76, 24.98,
    88,10/07/05 01:28:14,11,291.14, 82.56,1015.6,N,  0.00, 90.00,296.32, 70.92, 67.69, 55.85, 35.40, 25.88,
    89,10/07/05 01:29:14,11,291.25, 82.82,1015.6,N,  0.00, 90.00,296.33, 69.47, 65.29, 53.44, 32.43, 22.48,
    90,10/07/05 01:30:14,11,291.26, 82.24,1015.6,N,  0.00, 90.00,296.32, 70.87, 66.83, 55.33, 34.57, 24.11,
    91,10/07/05 01:31:14,11,291.40, 83.42,1015.5,N,  0.00, 90.00,296.32, 69.42, 65.75, 53.84, 33.06, 21.33,
    92,10/07/05 01:32:14,11,291.33, 83.51,1015.7,N,  0.00, 90.00,296.31, 71.35, 67.72, 55.76, 35.64, 25.17,
    93,10/07/05 01:33:14,11,291.25, 84.31,1015.6,N,  0.00, 90.00,296.31, 71.22, 67.32, 55.41, 35.18, 25.09,
    94,10/07/05 01:34:14,11,291.29, 83.50,1015.8,N,  0.00, 90.00,296.32, 70.68, 67.44, 55.50, 34.81, 24.60,
    95,10/07/05 01:35:14,11,291.25, 82.96,1015.5,N,  0.00, 90.00,296.31, 71.21, 67.31, 55.75, 35.55, 25.74,
    96,10/07/05 01:36:14,11,291.26, 83.18,1016.0,N,  0.00, 90.00,296.32, 70.83, 67.68, 56.46, 35.48, 25.28,
    97,10/07/05 01:37:14,11,291.24, 83.34,1015.8,N,  0.00, 90.00,296.32, 70.73, 67.28, 55.48, 34.80, 24.28,
    98,10/07/05 01:38:14,11,291.18, 83.18,1015.8,N,  0.00, 90.00,296.32, 70.72, 67.71, 55.27, 34.47, 23.99,
    99,10/07/05 01:39:14,11,291.37, 84.13,1015.6,N,  0.00, 90.00,296.32, 70.76, 67.21, 56.09, 35.52, 25.12,
   100,10/07/05 01:40:14,11,291.31, 83.92,1015.3,N,  0.00, 90.00,296.31, 71.14, 67.51, 55.98, 35.15, 25.66,
   101,10/07/05 01:41:14,11,291.39, 84.10,1015.7,N,  0.00, 90.00,296.32, 71.69, 68.47, 56.93, 36.21, 26.05,
   102,10/07/05 01:42:14,11,291.31, 84.12,1015.1,N,  0.00, 90.00,296.32, 70.41, 67.49, 55.53, 34.77, 24.81,
   103,10/07/05 01:43:14,11,291.21, 84.22,1015.6,N,  0.00, 90.00,296.31, 71.17, 67.35, 56.17, 35.81, 25.60,
   104,10/07/05 01:44:14,11,291.23, 84.25,1015.8,N,  0.00, 90.00,296.32, 70.32, 67.09, 55.09, 34.52, 24.41,
   105,10/07/05 01:45:14,11,291.25, 84.45,1015.5,N,  0.00, 90.00,296.32, 70.61, 67.01, 55.37, 34.42, 24.87,
   106,10/07/05 01:46:14,11,291.24, 84.14,1015.5,N,  0.00, 90.00,296.32, 69.80, 67.19, 55.95, 35.14, 25.17,
   107,10/07/05 01:47:14,11,291.26, 83.95,1015.2,N,  0.00, 90.00,296.33, 70.35, 66.31, 54.64, 34.11, 24.11,
   108,10/07/05 01:48:14,11,291.33, 84.04,1015.6,N,  0.00, 90.00,296.32, 70.54, 66.93, 55.39, 34.64, 24.73,
   109,10/07/05 01:49:14,11,291.34, 84.19,1015.7,N,  0.00, 90.00,296.32, 70.17, 67.19, 55.76, 35.12, 25.56,
   110,10/07/05 01:50:14,11,291.35, 84.34,1016.0,N,  0.00, 90.00,296.32, 69.97, 65.96, 54.88, 33.87, 24.00,
   111,10/07/05 01:51:14,11,291.26, 84.18,1016.0,N,  0.00, 90.00,296.31, 70.21, 66.71, 54.82, 34.04, 23.83,
   112,10/07/05 01:52:14,11,291.26, 83.84,1015.9,N,  0.00, 90.00,296.31, 70.20, 66.36, 54.41, 33.91, 24.87,
   113,10/07/05 01:53:14,11,291.39, 83.99,1015.9,N,  0.00, 90.00,296.32, 69.81, 66.20, 54.40, 34.44, 24.22,
   114,10/07/05 01:54:14,11,291.27, 84.26,1015.8,N,  0.00, 90.00,296.32, 69.08, 65.10, 53.69, 33.21, 22.94,
   115,10/07/05 01:55:14,11,291.40, 84.82,1015.8,N,  0.00, 90.00,296.32, 69.09, 65.34, 54.28, 33.21, 24.03,
   116,10/07/05 01:56:14,11,291.35, 83.53,1016.3,N,  0.00, 90.00,296.32, 69.06, 65.05, 54.08, 32.55, 23.15,
   117,10/07/05 01:57:14,11,291.39, 83.55,1015.9,N,  0.00, 90.00,296.33, 68.66, 65.42, 53.76, 33.18, 24.29,
   118,10/07/05 01:58:14,11,291.28, 83.77,1015.8,N,  0.00, 90.00,296.32, 69.85, 66.13, 54.85, 35.08, 24.84,
   119,10/07/05 01:59:14,11,291.32, 82.92,1015.7,N,  0.00, 90.00,296.33, 70.33, 66.74, 55.61, 35.19, 25.60,
   120,10/07/05 02:00:14,11,291.45, 83.25,1016.0,N,  0.00, 90.00,296.33, 71.92, 67.99, 57.08, 37.00, 28.01,
   121,10/07/05 02:01:14,11,291.48, 83.48,1016.0,N,  0.00, 90.00,296.34, 68.84, 65.49, 54.16, 33.42, 23.01,
   122,10/07/05 02:02:14,11,291.32, 82.94,1015.8,N,  0.00, 90.00,296.34, 69.42, 65.76, 54.47, 33.93, 24.11,
   123,10/07/05 02:03:14,11,291.36, 83.54,1016.4,N,  0.00, 90.00,296.33, 69.92, 65.87, 55.00, 34.04, 24.45,
   124,10/07/05 02:04:14,11,291.41, 83.36,1016.0,N,  0.00, 90.00,296.34, 69.31, 65.29, 54.11, 33.39, 24.41,
   125,10/07/05 02:05:14,11,291.48, 82.23,1016.0,N,  0.00, 90.00,296.34, 69.74, 66.30, 55.06, 34.96, 24.98,
   126,10/07/05 02:06:14,11,291.41, 82.25,1015.9,N,  0.00, 90.00,296.34, 69.83, 66.41, 54.71, 34.37, 24.37,
   127,10/07/05 02:07:14,11,291.47, 81.81,1016.0,N,  0.00, 90.00,296.35, 69.06, 65.69, 54.11, 33.37, 23.51,
   128,10/07/05 02:08:14,11,291.51, 80.56,1016.2,N,  0.00, 90.00,296.35, 68.63, 65.36, 53.45, 32.58, 23.50,
   129,10/07/05 02:09:14,11,291.53, 80.74,1016.0,N,  0.00, 90.00,296.35, 69.41, 66.19, 54.48, 34.33, 23.89,
   130,10/07/05 02:10:14,11,291.54, 81.21,1016.0,N,  0.00, 90.00,296.35, 69.77, 66.45, 55.29, 35.31, 26.01,
   131,10/07/05 02:11:14,11,291.61, 81.05,1015.9,N,  0.00, 90.00,296.36, 69.62, 66.03, 54.80, 35.30, 25.12,
   132,10/07/05 02:12:14,11,291.55, 80.32,1015.8,N,  0.00, 90.00,296.36, 69.81, 66.37, 54.98, 35.03, 24.79,
   133,10/07/05 02:13:14,11,291.54, 80.29,1015.9,N,  0.00, 90.00,296.37, 70.54, 66.16, 55.13, 35.00, 25.54,
   134,10/07/05 02:14:14,11,291.59, 80.54,1015.9,N,  0.00, 90.00,296.36, 68.58, 65.91, 54.03, 33.36, 22.38,
   135,10/07/05 02:15:14,11,291.62, 81.13,1015.9,N,  0.00, 90.00,296.37, 70.35, 66.66, 55.35, 35.33, 25.97,
   136,10/07/05 02:16:14,11,291.53, 81.15,1016.0,N,  0.00, 90.00,296.37, 69.99, 66.93, 55.73, 34.99, 25.70,
   137,10/07/05 02:17:14,11,291.61, 81.37,1015.9,N,  0.00, 90.00,296.39, 70.46, 66.71, 55.26, 35.20, 25.54,
   138,10/07/05 02:18:14,11,291.53, 81.21,1015.7,N,  0.00, 90.00,296.38, 69.51, 65.96, 54.51, 33.82, 24.32,
   139,10/07/05 02:19:14,11,291.56, 81.18,1016.2,N,  0.00, 90.00,296.39, 70.20, 67.08, 56.06, 35.78, 26.91,
   140,10/07/05 02:20:14,11,291.59, 80.67,1016.4,N,  0.00, 90.00,296.39, 69.22, 65.52, 54.06, 33.95, 24.18,
   141,10/07/05 02:21:14,11,291.58, 80.63,1015.6,N,  0.00, 90.00,296.40, 68.80, 64.57, 53.61, 32.90, 22.57,
   142,10/07/05 02:22:14,11,291.56, 80.55,1016.1,N,  0.00, 90.00,296.39, 68.85, 65.81, 54.83, 34.11, 24.92,
   143,10/07/05 02:23:14,11,291.60, 80.39,1015.7,N,  0.00, 90.00,296.40, 68.19, 64.46, 53.68, 32.82, 22.59,
   144,10/07/05 02:24:14,11,291.62, 81.39,1015.9,N,  0.00, 90.00,296.41, 68.26, 64.65, 53.07, 32.44, 21.48,
   145,10/07/05 02:25:14,11,291.60, 80.79,1016.1,N,  0.00, 90.00,296.41, 69.26, 66.00, 54.41, 33.94, 24.52,
   146,10/07/05 02:26:14,11,291.56, 80.30,1015.9,N,  0.00, 90.00,296.41, 71.09, 67.35, 56.32, 37.09, 28.81,
   147,10/07/05 02:27:14,11,291.68, 81.56,1015.9,N,  0.00, 90.00,296.43, 70.16, 66.92, 55.64, 34.99, 25.63,
   148,10/07/05 02:28:14,11,291.60, 81.57,1016.2,N,  0.00, 90.00,296.42, 71.19, 67.84, 56.04, 36.21, 27.67,
   149,10/07/05 02:29:14,11,291.57, 80.95,1015.8,N,  0.00, 90.00,296.41, 70.39, 67.32, 55.69, 35.77, 27.16,
   150,10/07/05 02:30:14,11,291.68, 80.82,1016.2,N,  0.00, 90.00,296.43, 69.35, 66.05, 54.51, 34.25, 24.74,
   151,10/07/05 02:31:14,11,291.53, 80.34,1015.6,N,  0.00, 90.00,296.44, 68.88, 65.51, 54.45, 33.75, 24.41,
   152,10/07/05 02:32:14,11,291.62, 80.47,1016.0,N,  0.00, 90.00,296.44, 69.11, 65.11, 53.40, 33.58, 22.94,
   153,10/07/05 02:33:14,11,291.60, 80.06,1015.8,N,  0.00, 90.00,296.43, 68.67, 65.42, 54.42, 33.96, 24.89,
   154,10/07/05 02:34:14,11,291.51, 78.82,1015.7,N,  0.00, 90.00,296.44, 68.37, 65.09, 53.85, 33.29, 23.54,
   155,10/07/05 02:35:14,11,291.61, 78.40,1016.1,N,  0.00, 90.00,296.44, 68.66, 64.84, 53.31, 32.89, 24.30,
   156,10/07/05 02:36:14,11,291.58, 79.51,1015.9,N,  0.00, 90.00,296.45, 68.49, 64.62, 53.46, 33.45, 23.54,
   157,10/07/05 02:37:14,11,291.54, 79.32,1016.1,N,  0.00, 90.00,296.44, 67.42, 63.46, 52.40, 32.38, 22.54,
   158,10/07/05 02:38:14,11,291.46, 78.68,1016.0,N,  0.00, 90.00,296.45, 67.38, 64.12, 51.98, 32.16, 21.60,
   159,10/07/05 02:39:14,11,291.66, 80.58,1016.0,N,  0.00, 90.00,296.44, 67.76, 64.04, 52.54, 32.72, 22.70,
   160,10/07/05 02:40:14,11,291.51, 80.20,1016.2,N,  0.00, 90.00,296.44, 67.71, 64.03, 52.68, 32.72, 22.25,
   161,10/07/05 02:41:14,11,291.49, 79.95,1016.2,N,  0.00, 90.00,296.44, 67.76, 64.01, 52.50, 33.09, 22.63,
   162,10/07/05 02:42:14,11,291.36, 79.77,1016.4,N,  0.00, 90.00,296.45, 68.57, 65.06, 53.81, 34.06, 23.29,
   163,10/07/05 02:43:14,11,291.62, 80.27,1016.3,N,  0.00, 90.00,296.45, 68.04, 64.95, 53.86, 33.68, 23.50,
   164,10/07/05 02:44:14,11,291.45, 80.98,1016.1,N,  0.00, 90.00,296.45, 67.69, 63.91, 52.75, 32.53, 22.69,
   165,10/07/05 02:45:14,11,291.57, 80.51,1016.2,N,  0.00, 90.00,296.45, 67.46, 64.25, 53.12, 33.25, 23.13,
   166,10/07/05 02:46:14,11,291.54, 79.96,1016.6,N,  0.00, 90.00,296.45, 68.21, 64.64, 53.02, 32.85, 23.31,
   167,10/07/05 02:47:14,11,291.56, 80.62,1016.3,N,  0.00, 90.00,296.43, 67.82, 64.54, 53.07, 33.61, 23.27,
   168,10/07/05 02:48:14,11,291.62, 80.93,1016.4,N,  0.00, 90.00,296.46, 67.60, 63.74, 52.62, 32.29, 21.97,
   169,10/07/05 02:49:14,11,291.55, 81.49,1016.3,N,  0.00, 90.00,296.45, 67.69, 64.00, 52.73, 33.12, 23.18,
   170,10/07/05 02:50:14,11,291.53, 80.59,1016.2,N,  0.00, 90.00,296.46, 67.76, 63.65, 53.03, 32.87, 22.51,
   171,10/07/05 02:51:14,11,291.42, 80.73,1016.3,N,  0.00, 90.00,296.46, 67.27, 63.73, 52.31, 32.75, 23.10,
   172,10/07/05 02:52:14,11,291.58, 79.76,1016.4,N,  0.00, 90.00,296.45, 66.89, 63.94, 51.97, 31.95, 22.04,
   173,10/07/05 02:53:14,11,291.57, 80.23,1016.4,N,  0.00, 90.00,296.46, 67.04, 64.18, 53.13, 33.01, 23.83,
   174,10/07/05 02:54:14,11,291.64, 81.75,1016.6,N,  0.00, 90.00,296.45, 68.04, 64.12, 53.16, 33.25, 23.80,
   175,10/07/05 02:55:14,11,291.40, 81.48,1016.0,N,  0.00, 90.00,296.46, 68.07, 64.70, 53.06, 32.94, 23.26,
   176,10/07/05 02:56:14,11,291.52, 81.69,1016.4,N,  0.00, 90.00,296.45, 69.34, 65.90, 55.07, 35.44, 25.42,
   177,10/07/05 02:57:14,11,291.58, 80.55,1016.3,N,  0.00, 90.00,296.46, 69.23, 66.42, 54.63, 34.91, 25.84,
   178,10/07/05 02:58:14,11,291.57, 80.46,1016.2,N,  0.00, 90.00,296.45, 70.18, 66.74, 56.41, 36.82, 28.57,
   179,10/07/05 02:59:14,11,291.53, 80.08,1016.4,N,  0.00, 90.00,296.46, 67.45, 64.39, 53.19, 32.67, 22.97,
   180,10/07/05 03:00:14,11,291.55, 79.84,1016.3,N,  0.00, 90.00,296.46, 67.55, 63.98, 52.38, 32.35, 21.44,
   181,10/07/05 03:01:14,11,291.46, 79.69,1015.9,N,  0.00, 90.00,296.47, 67.33, 63.66, 52.61, 31.61, 21.89,
   182,10/07/05 03:02:14,11,291.57, 79.36,1015.9,N,  0.00, 90.00,296.46, 67.49, 64.06, 53.01, 32.76, 22.85,
   183,10/07/05 03:03:14,11,291.45, 80.29,1016.2,N,  0.00, 90.00,296.46, 67.39, 64.12, 52.77, 32.61, 23.36,
   184,10/07/05 03:04:14,11,291.44, 79.35,1016.1,N,  0.00, 90.00,296.45, 67.48, 63.66, 52.77, 32.44, 22.75,
   185,10/07/05 03:05:14,11,291.59, 79.05,1016.1,N,  0.00, 90.00,296.45, 66.98, 63.51, 52.72, 32.88, 23.00,
   186,10/07/05 03:06:14,11,291.60, 79.70,1016.3,N,  0.00, 90.00,296.46, 67.26, 63.50, 52.03, 32.20, 22.64,
   187,10/07/05 03:07:14,11,291.51, 80.21,1016.4,N,  0.00, 90.00,296.47, 67.59, 64.06, 52.26, 32.89, 22.95,
   188,10/07/05 03:08:14,11,291.54, 80.31,1016.6,N,  0.00, 90.00,296.45, 67.08, 63.13, 51.95, 31.86, 22.64,
   189,10/07/05 03:09:14,11,291.50, 79.07,1016.1,N,  0.00, 90.00,296.44, 66.56, 63.17, 52.01, 31.85, 21.49,
   190,10/07/05 03:10:14,11,291.57, 79.89,1016.7,N,  0.00, 90.00,296.44, 66.93, 63.40, 51.77, 31.23, 21.61,
   191,10/07/05 03:11:14,11,291.42, 80.10,1016.8,N,  0.00, 90.00,296.45, 67.60, 63.56, 52.55, 32.63, 22.98,
   192,10/07/05 03:12:14,11,291.62, 80.41,1016.0,N,  0.00, 90.00,296.45, 68.38, 64.98, 53.81, 34.31, 25.28,
   193,10/07/05 03:13:14,11,291.51, 80.29,1016.3,N,  0.00, 90.00,296.45, 67.74, 63.64, 53.00, 33.18, 23.34,
   194,10/07/05 03:14:14,11,291.47, 79.41,1016.3,N,  0.00, 90.00,296.45, 67.26, 63.76, 52.53, 32.94, 22.48,
   195,10/07/05 03:15:14,11,291.50, 79.86,1016.3,N,  0.00, 90.00,296.44, 67.90, 64.92, 53.35, 32.62, 21.96,
   196,10/07/05 03:16:14,11,291.58, 80.39,1016.3,N,  0.00, 90.00,296.43, 67.03, 63.39, 51.89, 31.28, 20.63,
   197,10/07/05 03:17:14,11,291.48, 79.19,1016.0,N,  0.00, 90.00,296.44, 67.15, 63.34, 51.93, 31.54, 21.09,
   198,10/07/05 03:18:14,11,291.47, 78.62,1016.3,N,  0.00, 90.00,296.44, 66.14, 62.93, 51.02, 30.99, 20.46,
   199,10/07/05 03:19:14,11,291.52, 79.41,1016.6,N,  0.00, 90.00,296.43, 66.88, 62.95, 51.48, 31.42, 21.24,
   200,10/07/05 03:20:14,11,291.43, 78.94,1016.3,N,  0.00, 90.00,296.43, 66.85, 62.56, 51.18, 30.95, 20.79,
   201,10/07/05 03:21:14,11,291.44, 79.40,1016.4,N,  0.00, 90.00,296.42, 66.45, 62.73, 51.33, 31.21, 21.46,
   202,10/07/05 03:22:14,11,291.47, 79.41,1016.3,N,  0.00, 90.00,296.42, 66.28, 62.96, 51.26, 30.86, 21.33,
   203,10/07/05 03:23:14,11,291.59, 80.12,1016.4,N,  0.00, 90.00,296.42, 66.51, 62.71, 51.37, 30.92, 21.84,
   204,10/07/05 03:24:14,11,291.40, 79.15,1016.6,N,  0.00, 90.00,296.42, 66.12, 62.66, 50.67, 31.07, 20.88,
   205,10/07/05 03:25:14,11,291.34, 78.85,1016.4,N,  0.00, 90.00,296.41, 65.92, 62.51, 51.62, 31.13, 20.68,
   206,10/07/05 03:26:14,11,291.46, 80.06,1016.3,N,  0.00, 90.00,296.40, 65.98, 62.84, 50.92, 31.33, 20.53,
   207,10/07/05 03:27:14,11,291.52, 80.34,1016.1,N,  0.00, 90.00,296.40, 66.27, 62.71, 51.02, 31.06, 21.29,
   208,10/07/05 03:28:14,11,291.47, 79.78,1016.2,N,  0.00, 90.00,296.40, 65.95, 62.79, 51.21, 30.64, 20.88,
   209,10/07/05 03:29:14,11,291.38, 81.74,1016.5,N,  0.00, 90.00,296.39, 66.24, 62.52, 50.97, 30.78, 20.86,
   210,10/07/05 03:30:14,11,291.41, 79.94,1016.6,N,  0.00, 90.00,296.39, 66.31, 62.70, 51.13, 31.60, 21.30,
   211,10/07/05 03:31:14,11,291.37, 79.95,1016.4,N,  0.00, 90.00,296.39, 65.81, 61.79, 51.10, 31.40, 21.59,
   212,10/07/05 03:32:14,11,291.53, 80.52,1016.6,N,  0.00, 90.00,296.39, 66.40, 62.83, 51.04, 30.81, 20.73,
   213,10/07/05 03:33:14,11,291.48, 80.87,1016.8,N,  0.00, 90.00,296.37, 66.10, 62.41, 51.31, 31.22, 20.74,
   214,10/07/05 03:34:14,11,291.48, 80.43,1016.7,N,  0.00, 90.00,296.36, 66.34, 63.00, 51.79, 31.36, 22.16,
   215,10/07/05 03:35:14,11,291.27, 80.41,1016.5,N,  0.00, 90.00,296.37, 66.03, 62.74, 51.54, 31.14, 21.56,
   216,10/07/05 03:36:14,11,291.40, 80.32,1016.3,N,  0.00, 90.00,296.36, 66.02, 62.71, 51.04, 31.09, 20.83,
   217,10/07/05 03:37:14,11,291.45, 79.39,1016.3,N,  0.00, 90.00,296.36, 66.33, 62.50, 51.59, 31.13, 21.61,
   218,10/07/05 03:38:14,11,291.52, 80.83,1016.4,N,  0.00, 90.00,296.35, 66.11, 62.29, 51.15, 30.94, 21.32,
   219,10/07/05 03:39:14,11,291.43, 79.45,1016.6,N,  0.00, 90.00,296.35, 66.01, 62.24, 51.43, 31.35, 21.17,